| time (UTC) | temp F | wind direction | speed MPH | gust MPH | rain 1hr in | rain 24hr in | rain mn in | humidity % | barometer mb |
| 20260506044610 | 38 | 316 | 15.0 | 22.0 | 0.00 | 0.00 | 0.00 | 76 | 1007.2 |
| 20260506043054 | 38 | 328 | 15.0 | 24.0 | 0.00 | 0.00 | 0.00 | 76 | 1007.0 |
| 20260506041551 | 38 | 337 | 15.0 | 23.0 | 0.00 | 0.00 | 0.00 | 75 | 1006.9 |
| 20260506040047 | 38 | 332 | 14.0 | 25.0 | 0.00 | 0.00 | 0.00 | 75 | 1006.8 |
| 20260506034545 | 38 | 335 | 14.0 | 25.0 | 0.00 | 0.00 | 0.00 | 75 | 1006.7 |
| 20260506033041 | 38 | 330 | 16.0 | 24.0 | 0.00 | 0.00 | 0.00 | 74 | 1006.4 |
| 20260506031541 | 38 | 317 | 14.0 | 24.0 | 0.00 | 0.00 | 0.00 | 75 | 1006.5 |
| 20260506030038 | 38 | 327 | 14.0 | 23.0 | 0.00 | 0.00 | 0.00 | 75 | 1006.3 |
| 20260506024546 | 38 | 326 | 15.0 | 22.0 | 0.00 | 0.00 | 0.00 | 75 | 1006.2 |
| 20260506023032 | 38 | 333 | 17.0 | 24.0 | 0.00 | 0.00 | 0.00 | 74 | 1006.1 |
| 20260506021529 | 38 | 326 | 15.0 | 25.0 | 0.00 | 0.00 | 0.00 | 75 | 1005.9 |
| 20260506020029 | 38 | 332 | 15.0 | 23.0 | 0.00 | 0.00 | 0.00 | 73 | 1005.9 |
| 20260506014528 | 39 | 333 | 14.0 | 24.0 | 0.00 | 0.00 | 0.00 | 74 | 1005.8 |
| 20260506013020 | 39 | 355 | 14.0 | 20.0 | 0.00 | 0.00 | 0.00 | 74 | 1005.7 |
| 20260506011518 | 39 | 337 | 14.0 | 20.0 | 0.00 | 0.00 | 0.00 | 73 | 1005.5 |
| 20260506010017 | 39 | 330 | 15.0 | 25.0 | 0.00 | 0.00 | 0.00 | 73 | 1005.5 |
| 20260506004513 | 39 | 328 | 15.0 | 21.0 | 0.00 | 0.00 | 0.00 | 73 | 1005.4 |
| 20260506003014 | 39 | 358 | 14.0 | 20.0 | 0.00 | 0.00 | 0.00 | 74 | 1005.1 |
| 20260506001509 | 39 | 332 | 14.0 | 21.0 | 0.00 | 0.00 | 0.00 | 72 | 1005.0 |
| 20260506000007 | 40 | 332 | 12.0 | 24.0 | 0.00 | 0.00 | 0.00 | 72 | 1004.9 |
| 20260505234503 | 40 | 345 | 13.0 | 23.0 | 0.00 | 0.00 | 0.00 | 71 | 1004.8 |
| 20260505233100 | 40 | 347 | 12.0 | 25.0 | 0.00 | 0.00 | 0.00 | 72 | 1004.8 |
| 20260505231604 | 41 | 325 | 15.0 | 23.0 | 0.00 | 0.00 | 0.00 | 73 | 1004.7 |
| 20260505230100 | 41 | 320 | 18.0 | 23.0 | 0.00 | 0.00 | 0.00 | 71 | 1004.6 |
| 20260505224553 | 41 | 349 | 13.0 | 18.0 | 0.00 | 0.00 | 0.00 | 71 | 1004.6 |
| 20260505223047 | 41 | 334 | 15.0 | 21.0 | 0.00 | 0.00 | 0.00 | 69 | 1004.5 |
| 20260505221545 | 41 | 337 | 12.0 | 20.0 | 0.00 | 0.00 | 0.00 | 70 | 1004.4 |
| 20260505220043 | 41 | 330 | 9.0 | 18.0 | 0.00 | 0.00 | 0.00 | 72 | 1004.3 |
| 20260505214542 | 41 | 326 | 10.0 | 19.0 | 0.00 | 0.00 | 0.00 | 70 | 1004.2 |
| 20260505213051 | 41 | 337 | 10.0 | 17.0 | 0.00 | 0.00 | 0.00 | 71 | 1004.2 |
| 20260505211537 | 42 | 330 | 11.0 | 18.0 | 0.00 | 0.00 | 0.00 | 70 | 1004.1 |
| 20260505210035 | 42 | 347 | 10.0 | 17.0 | 0.00 | 0.00 | 0.00 | 72 | 1004.0 |
| 20260505204532 | 42 | 345 | 11.0 | 17.0 | 0.00 | 0.00 | 0.00 | 70 | 1003.9 |
| 20260505203030 | 42 | 341 | 11.0 | 22.0 | 0.00 | 0.00 | 0.00 | 69 | 1003.8 |
| 20260505201529 | 42 | 330 | 13.0 | 18.0 | 0.00 | 0.00 | 0.00 | 69 | 1003.7 |
| 20260505200029 | 42 | 326 | 12.0 | 18.0 | 0.00 | 0.00 | 0.00 | 72 | 1003.6 |
| 20260505194527 | 42 | 336 | 8.0 | 17.0 | 0.00 | 0.02 | 0.00 | 77 | 1003.4 |
| 20260505193024 | 42 | 267 | 3.0 | 9.0 | 0.00 | 0.02 | 0.00 | 75 | 1003.4 |
| 20260505191524 | 43 | 333 | 2.0 | 9.0 | 0.00 | 0.02 | 0.00 | 74 | 1003.3 |
| 20260505190023 | 43 | 305 | 2.0 | 12.0 | 0.00 | 0.02 | 0.00 | 73 | 1003.2 |
| 20260505184522 | 43 | 247 | 5.0 | 15.0 | 0.00 | 0.06 | 0.00 | 73 | 1003.2 |
| 20260505183120 | 43 | 274 | 5.0 | 14.0 | 0.00 | 0.06 | 0.00 | 74 | 1003.0 |
| 20260505181518 | 43 | 297 | 4.0 | 11.0 | 0.00 | 0.06 | 0.00 | 72 | 1002.9 |
| 20260505180038 | 44 | 304 | 6.0 | 11.0 | 0.00 | 0.06 | 0.00 | 71 | 1002.9 |
| 20260505174517 | 44 | 257 | 6.0 | 13.0 | 0.00 | 0.06 | 0.00 | 71 | 1002.8 |
| 20260505173015 | 44 | 298 | 4.0 | 12.0 | 0.00 | 0.06 | 0.00 | 69 | 1002.8 |
| 20260505171514 | 44 | 299 | 6.0 | 14.0 | 0.00 | 0.06 | 0.00 | 70 | 1002.8 |
| 20260505170013 | 45 | 270 | 5.0 | 15.0 | 0.00 | 0.06 | 0.00 | 71 | 1002.7 |
| 20260505164512 | 45 | 299 | 4.0 | 11.0 | 0.00 | 0.06 | 0.00 | 69 | 1002.7 |
| 20260505163010 | 45 | 269 | 5.0 | 14.0 | 0.00 | 0.06 | 0.00 | 67 | 1002.6 |
| 20260505161509 | 46 | 297 | 4.0 | 14.0 | 0.00 | 0.06 | 0.00 | 60 | 1002.6 |
| 20260505153010 | 46 | 284 | 11.0 | 20.0 | 0.00 | 0.06 | 0.00 | 58 | 1002.4 |
| 20260505151604 | 46 | 334 | 7.0 | 18.0 | 0.00 | 0.06 | 0.00 | 64 | 1002.4 |
| 20260505124550 | 46 | 289 | 7.0 | 14.0 | 0.00 | 0.06 | 0.00 | 61 | 1001.6 |
| 20260505123048 | 47 | 268 | 6.0 | 12.0 | 0.00 | 0.06 | 0.00 | 60 | 1001.4 |
| 20260505121547 | 48 | 290 | 5.0 | 16.0 | 0.00 | 0.06 | 0.00 | 59 | 1001.4 |
| 20260505120045 | 48 | 341 | 3.0 | 17.0 | 0.00 | 0.06 | 0.00 | 56 | 1001.3 |
| 20260505114541 | 46 | 301 | 7.0 | 19.0 | 0.00 | 0.06 | 0.00 | 55 | 1001.3 |
| 20260505113046 | 46 | 332 | 14.0 | 22.0 | 0.00 | 0.06 | 0.00 | 54 | 1001.2 |
| 20260505111535 | 45 | 355 | 16.0 | 23.0 | 0.00 | 0.06 | 0.00 | 56 | 1001.1 |
| 20260505101536 | 43 | 334 | 13.0 | 24.0 | 0.00 | 0.06 | 0.00 | 65 | 1000.3 |
| 20260505100049 | 43 | 307 | 13.0 | 23.0 | 0.00 | 0.06 | 0.00 | 66 | 1000.2 |
| 20260505094514 | 43 | 330 | 13.0 | 23.0 | 0.00 | 0.06 | 0.00 | 67 | 1000.2 |
| 20260505093009 | 43 | 344 | 10.0 | 22.0 | 0.00 | 0.06 | 0.00 | 67 | 1000.0 |
| 20260505091506 | 42 | 19 | 6.0 | 22.0 | 0.00 | 0.06 | 0.00 | 66 | 999.9 |
| 20260505090002 | 42 | 343 | 12.0 | 20.0 | 0.00 | 0.06 | 0.00 | 64 | 999.7 |
| 20260505084607 | 41 | 316 | 12.0 | 21.0 | 0.00 | 0.06 | 0.00 | 67 | 999.7 |
| 20260505083100 | 41 | 5 | 15.0 | 24.0 | 0.00 | 0.06 | 0.00 | 67 | 999.5 |
| 20260505081605 | 41 | 339 | 15.0 | 23.0 | 0.00 | 0.06 | 0.00 | 70 | 999.3 |
| 20260505080059 | 40 | 304 | 10.0 | 21.0 | 0.00 | 0.06 | 0.00 | 71 | 999.1 |
| 20260505074552 | 40 | 318 | 10.0 | 21.0 | 0.00 | 0.06 | 0.00 | 72 | 999.0 |
| 20260505073048 | 40 | 329 | 11.0 | 20.0 | 0.00 | 0.06 | 0.00 | 74 | 999.0 |
| 20260505071551 | 40 | 323 | 12.0 | 19.0 | 0.00 | 0.06 | 0.00 | 73 | 998.8 |
| 20260505070043 | 39 | 338 | 11.0 | 20.0 | 0.00 | 0.06 | 0.00 | 73 | 998.6 |
| 20260505064540 | 39 | 339 | 12.0 | 20.0 | 0.00 | 0.06 | 0.00 | 75 | 998.4 |
| 20260505063046 | 39 | 324 | 10.0 | 23.0 | 0.00 | 0.06 | 0.00 | 76 | 998.3 |
| 20260505061540 | 39 | 329 | 10.0 | 16.0 | 0.00 | 0.06 | 0.00 | 76 | 998.2 |
| 20260505060034 | 39 | 340 | 11.0 | 18.0 | 0.00 | 0.06 | 0.00 | 77 | 998.1 |
| 20260505054543 | 39 | 347 | 9.0 | 17.0 | 0.00 | 0.06 | 0.00 | 78 | 998.1 |
| 20260505053039 | 38 | 354 | 10.0 | 18.0 | 0.00 | 0.06 | 0.00 | 80 | 998.0 |
| 20260505051538 | 38 | 353 | 9.0 | 14.0 | 0.00 | 0.06 | 0.00 | 80 | 997.9 |